Weather History for Lanai City, HI

Change the Weather History Date:

Sunday, January 26, 2014

  Actual Average Record
Temperature  
Mean Temperature 71 °F -  
Max Temperature 77 °F 75 °F 82 °F (1997)
Min Temperature 65 °F 58 °F 54 °F (1980)
Cooling Degree Days 6    
Growing Degree Days 21 (Base 50)    
Moisture  
Dew Point 65 °F    
Average Humidity 89    
Maximum Humidity 100    
Minimum Humidity 64    
Precipitation  
Precipitation 0.00 in - - ()
Sea Level Pressure  
Sea Level Pressure 29.91 in    
Wind  
Wind Speed 7 mph (West)    
Max Wind Speed 12 mph    
Max Gust Speed -    
Visibility 7 miles    
Events Rain    
Averages and records for this station are not official NWS values.
T = Trace of Precipitation, MM = Missing Value Source: NWS Daily Summary

Daily Weather History Graph

Daily Weather History Graph

Search for Another Location

Airport:

Trip Planner

Search our weather history database for the weather conditions in past years. The results will help you decide how hot, cold, wet, or windy it might be!

Date:

Astronomy

Jan. 26, 2014 Rise Set
Actual Time 7:05 AM HST 6:15 PM HST
Civil Twilight 6:42 AM HST 6:38 PM HST
Nautical Twilight 6:15 AM HST 7:05 PM HST
Astronomical Twilight 5:49 AM HST 7:31 PM HST
Moon 2:52 AM HST (1/26) 2:18 PM HST (1/26)
Length of Visible Light 11h 55m
Length of Day
11h 09m
Waning Crescent, 22% of the Moon is Illuminated
Jan 26
Waning Crescent
Jan 30
New
Feb 6
First Quarter
Feb 14
Full
Feb 22
Last Quarter

Hourly Weather History & Observations

Time (HST) Temp. Dew Point Humidity Pressure Visibility Wind Dir Wind Speed Gust Speed Precip Events Conditions
12:56 AM 68.0 °F 55.9 °F 65% 29.88 in 10.0 mi WSW 11.5 mph - N/A   Overcast
1:56 AM 68.0 °F 57.9 °F 70% 29.88 in 10.0 mi WSW 8.1 mph - N/A   Overcast
2:40 AM 68.0 °F 57.2 °F 68% 29.93 in 10.0 mi West 6.9 mph - N/A   Overcast
2:56 AM 68.0 °F 57.9 °F 70% 29.86 in 10.0 mi WSW 5.8 mph - N/A   Overcast
3:56 AM 68.0 °F 59.0 °F 73% 29.86 in 10.0 mi WSW 5.8 mph - N/A   Overcast
4:06 AM 68.0 °F 59.0 °F 73% 29.91 in 10.0 mi WSW 6.9 mph - N/A   Overcast
4:25 AM 69.8 °F 59.0 °F 68% 29.92 in 10.0 mi WSW 5.8 mph - N/A   Overcast
4:56 AM 68.0 °F 59.0 °F 73% 29.91 in 10.0 mi SW 5.8 mph - N/A   Overcast
5:56 AM 65.8 °F 59.9 °F 81% 29.88 in 10.0 mi SSW 6.9 mph - N/A   Scattered Clouds
6:15 AM 66.2 °F 60.8 °F 83% 29.93 in 10.0 mi South 3.5 mph - N/A   Mostly Cloudy
6:56 AM 68.0 °F 61.0 °F 78% 29.90 in 10.0 mi SSW 3.5 mph - N/A   Overcast
7:56 AM 70.0 °F 61.0 °F 73% 29.91 in 10.0 mi SW 6.9 mph - N/A   Overcast
8:37 AM 71.6 °F 60.8 °F 69% 29.96 in 10.0 mi SW 8.1 mph - N/A   Overcast
8:56 AM 72.0 °F 61.0 °F 68% 29.91 in 10.0 mi SW 10.4 mph - N/A   Overcast
9:56 AM 72.9 °F 63.0 °F 71% 29.92 in 10.0 mi SW 6.9 mph - N/A   Overcast
10:56 AM 74.8 °F 61.9 °F 64% 29.91 in 10.0 mi SSW 10.4 mph - N/A   Overcast
11:56 AM 73.9 °F 63.0 °F 68% 29.89 in 10.0 mi WSW 8.1 mph - N/A   Overcast
12:56 PM 77.0 °F 63.9 °F 64% 29.85 in 10.0 mi West 10.4 mph - N/A   Overcast
1:56 PM 75.9 °F 63.9 °F 66% 29.83 in 10.0 mi SW 11.5 mph - N/A   Overcast
2:56 PM 72.9 °F 65.8 °F 79% 29.83 in 10.0 mi West 11.5 mph - N/A   Overcast
3:56 PM 70.0 °F 68.9 °F 96% 29.84 in 4.0 mi NW 9.2 mph - 0.00 in Rain Light Rain
4:04 PM 69.8 °F 69.8 °F 100% 29.89 in 2.5 mi NW 9.2 mph - 0.00 in Rain Light Rain
4:07 PM 69.8 °F 69.8 °F 100% 29.89 in 1.2 mi WNW 9.2 mph - 0.00 in Rain Light Rain
4:17 PM 69.8 °F 69.8 °F 100% 29.89 in 2.0 mi NW 5.8 mph - 0.00 in Rain Light Rain
4:24 PM 69.8 °F 69.8 °F 100% 29.89 in 6.0 mi NW 6.9 mph - 0.00 in   Overcast
4:56 PM 69.8 °F 69.8 °F 100% 29.90 in 10.0 mi NW 8.1 mph - N/A   Overcast
5:34 PM 69.8 °F 69.8 °F 100% 29.90 in 1.8 mi NW 8.1 mph - N/A   Overcast
5:38 PM 69.8 °F 69.8 °F 100% 29.91 in 1.0 mi NW 6.9 mph - N/A   Overcast
5:44 PM 69.8 °F 69.8 °F 100% 29.91 in 1.5 mi NW 6.9 mph - N/A   Overcast
5:47 PM 69.8 °F 69.8 °F 100% 29.91 in 3.0 mi NNW 6.9 mph - N/A   Overcast
5:56 PM 68.0 °F 68.0 °F 100% 29.87 in 10.0 mi NNW 5.8 mph - N/A   Overcast
6:12 PM 68.0 °F 68.0 °F 100% 29.91 in 1.8 mi NW 3.5 mph - 0.00 in Rain Light Rain
6:20 PM 68.0 °F 68.0 °F 100% 29.92 in 1.2 mi Calm Calm - 0.00 in   Overcast
6:27 PM 68.0 °F 68.0 °F 100% 29.92 in 1.5 mi Calm Calm - 0.00 in   Overcast
6:32 PM 68.0 °F 68.0 °F 100% 29.92 in 1.0 mi WNW 3.5 mph - 0.00 in   Overcast
6:41 PM 68.0 °F 68.0 °F 100% 29.92 in 0.8 mi NNW 3.5 mph - 0.00 in   Overcast
6:56 PM 66.9 °F 66.9 °F 100% 29.88 in 2.0 mi North 3.5 mph - 0.00 in   Overcast
7:04 PM 66.2 °F 66.2 °F 100% 29.92 in 7.0 mi NNE 5.8 mph - N/A   Overcast
7:19 PM 66.2 °F 66.2 °F 100% 29.93 in 10.0 mi North 6.9 mph - N/A   Overcast
7:56 PM 66.2 °F 66.2 °F 100% 29.95 in 10.0 mi NNE 8.1 mph - N/A   Overcast
8:21 PM 66.2 °F 66.2 °F 100% 29.95 in 10.0 mi NE 11.5 mph - N/A   Overcast
8:56 PM 66.9 °F 66.9 °F 100% 29.91 in 9.0 mi ESE 3.5 mph - N/A   Overcast
9:13 PM 66.2 °F 66.2 °F 100% 29.96 in 10.0 mi South 3.5 mph - N/A   Overcast
9:20 PM 66.2 °F 66.2 °F 100% 29.96 in 5.0 mi WSW 3.5 mph - N/A   Mostly Cloudy
9:24 PM 66.2 °F 66.2 °F 100% 29.96 in 1.8 mi WSW 3.5 mph - N/A   Overcast
9:27 PM 66.2 °F 66.2 °F 100% 29.96 in 1.2 mi WSW 3.5 mph - N/A   Overcast
9:32 PM 66.2 °F 66.2 °F 100% 29.96 in 1.0 mi West 3.5 mph - N/A   Overcast
9:45 PM 66.2 °F 66.2 °F 100% 29.96 in 1.5 mi Calm Calm - N/A   Overcast
9:49 PM 66.2 °F 66.2 °F 100% 29.96 in 3.0 mi Calm Calm - N/A   Overcast
9:56 PM 65.8 °F 65.8 °F 100% 29.91 in 10.0 mi Calm Calm - N/A   Overcast
10:20 PM 66.2 °F 66.2 °F 100% 29.97 in 6.0 mi Calm Calm - 0.00 in Rain Light Rain
10:47 PM 66.2 °F 66.2 °F 100% 29.96 in 10.0 mi ESE 3.5 mph - 0.00 in Rain Light Rain
10:56 PM 66.2 °F 66.2 °F 100% 29.96 in 10.0 mi ESE 3.5 mph - N/A Rain Light Rain
11:56 PM 66.9 °F 66.9 °F 100% 29.91 in 5.0 mi East 3.5 mph - 0.00 in Rain Light Rain